STARLINK-32480, 62039

Orbit data source: Space-Track

STARLINK-32480, 62039 is a payload satellite owned by SpaceX/Seattle (US) in LEO that was launched on Thu, 21 Nov 2024 UTC via an FALCON 9 launch vehicle from the Air Force Eastern Test Range (AFETR). Payloads include a variety of satellites, spacecraft, and rockets equipped with specific instruments for various scientific and technological missions. These include communications satellites like Starlink; space stations such as the ISS; scientific satellites like the Hubble; Earth observation satellites from companies like Planet Labs, Umbra, and HawkEye 360; GPS; miniature CubeSats for education and research; and military/defense satellites.

Loading next visibility...
STARLINK-32480 details
Identifier
62039, 2024-216H
Orbit
LEO
Last TLE update1 day ago
Origin
Flag of USSpaceX/Seattle (US)
ManufacturerSpaceX/Seattle
MissionOperational spacecraft
Bus & MotorSTARLINK V2M, Unknown motor
Mass730 kg wet, ~700 kg dry
Launch date (UTC)
2024-11-21 (1 month ago)
Launch vehicle
FALCON 9
Launch site
Air Force Eastern Test Range (AFETR)
Object type
Payload
Rocket body
Debris
Shape & HBRUnknown
Radar Cross SectionLarge (>1 m²)

Expand to show TLE details & history

TLE from 1 day ago
0 STARLINK-32480
1 62039U 24216H   24360.37029493  .00000111  00000-0  99321-5 0  9999
2 62039  43.0042 238.4642 0002071 264.7794  95.2826 15.40694693  5287
Epoch: 2024-12-25T08:53Z
Definitive object data (Epoch: 2024-12-25T08:53:13.481Z)
Latitude-0.00006°
Longitude10.79295°
Altitude443.963 km
Speed7.647 km/s
True Right ascension15h 53m 51s
True Declination0° 00' 00"
Sunlit
Object was in daylight at TLE epoch
Visualization TLE readout
Latitude39.72178°
Longitude67.10692°
Altitude447.759 km
Speed7.649 km/s
Apparent Right ascension20h 30m 35s
Apparent Declination1° 33' 46"
Sunlit
Object is in daylight
Visualization observer readout
Local Sidereal Time09:25:53
Azimuth20.361° NNE
Elevation-46.634°
Doppler factor1
Orbital elements
Apogee altitude447.427 km
Perigee altitude444.6 km
Semi-major axis6,824.15 km
Eccentricity0.0002071
Inclination43.0042°
RAAN238.4642°
Arg. of periapsis264.7794°
True anomaly95.30623°
Mean anomaly95.2826°
Eccentric anomaly95.29442°
Mean motion3.85008 °/min
BSTAR0.0000099321
Orbital period93.5 mins
Loading maneuver chart data...
Loading historical data...
Loading historical data...
Loading historical data...
Loading historical data...
Loading historical data...
Loading historical data...
Loading historical data...

STARLINK-32480 Visibility forecast

Observer location: undefined°, undefined

Span
Click to sort rows by Start time (UTC) header in descending order
Start Az.
Max El. time (UTC)
Max El. Az.
Max El.
End time (UTC)
End Az.
6 mins2024-12-26 19:19:46.288Z226.244° WSW2024-12-26 19:22:46.288Z159.6° S35.761°2024-12-26 19:25:46.288Z81.611° E
5 mins2024-12-26 20:58:46.288Z275.777° WNW2024-12-26 21:00:46.288Z336.052° NNW40.103°2024-12-26 21:03:46.288Z68.384° E
4 mins2024-12-26 22:37:46.288Z303.019° NW2024-12-26 22:38:46.288Z333.157° NNW37.132°2024-12-26 22:41:46.288Z82.93° E
5 mins2024-12-27 00:15:46.288Z270.583° WNW2024-12-27 00:17:46.288Z175.369° S37.539°2024-12-27 00:20:46.288Z127.203° SE
|